• In Hungary
  • List of Countries
  • For 7 days
  • Water Temperature
  • Satellite Maps
  • Weather Map
  • News
  • Weather Widgets
  • user-avatar
    Login

    Hourly Weather Mingachevir

    Today, 20 September, Wednesday

    Time Temperature Precipitation Wind Pressure Humidity
    00:00 +25°C° 0.1 mm 2 mps 754 mmHg 53%
    01:00 +25°C° 0 mm 1 mps 754 mmHg 54%
    02:00 +24°C° 0 mm 1 mps 754 mmHg 55%
    03:00 +24°C° 0 mm 1 mps 753 mmHg 56%
    04:00 +24°C° 0 mm 1 mps 753 mmHg 56%
    05:00 +22°C° 0 mm 0 mps 754 mmHg 56%
    06:00 +22°C° 0 mm 0 mps 754 mmHg 56%
    07:00 +26°C° 0 mm 1 mps 754 mmHg 53%
    08:00 +27°C° 0 mm 1 mps 754 mmHg 49%
    09:00 +30°C° 0 mm 2 mps 754 mmHg 43%
    10:00 +31°C° 0 mm 2 mps 753 mmHg 39%
    11:00 +32°C° 0 mm 2 mps 753 mmHg 35%
    12:00 +35°C° 0 mm 2 mps 753 mmHg 30%
    13:00 +35°C° 0 mm 2 mps 752 mmHg 29%
    14:00 +36°C° 0 mm 2 mps 752 mmHg 27%
    15:00 +36°C° 0 mm 2 mps 752 mmHg 25%
    16:00 +35°C° 0 mm 2 mps 752 mmHg 28%
    17:00 +32°C° 0 mm 1 mps 752 mmHg 30%
    18:00 +31°C° 0 mm 1 mps 752 mmHg 33%
    19:00 +30°C° 0 mm 1 mps 752 mmHg 35%
    20:00 +29°C° 0 mm 2 mps 752 mmHg 36%
    21:00 +28°C° 0 mm 2 mps 753 mmHg 38%
    22:00 +27°C° 0 mm 2 mps 753 mmHg 41%
    23:00 +27°C° 0 mm 2 mps 753 mmHg 43%

    Tomorrow, 21 September, Thursday

    Time Temperature Precipitation Wind Pressure Humidity
    00:00 +26°C° 0 mm 2 mps 753 mmHg 46%
    01:00 +25°C° 0 mm 1 mps 753 mmHg 48%
    02:00 +25°C° 0 mm 1 mps 753 mmHg 50%
    03:00 +24°C° 0 mm 1 mps 753 mmHg 51%
    04:00 +24°C° 0 mm 1 mps 753 mmHg 51%
    05:00 +24°C° 0 mm 1 mps 753 mmHg 51%
    06:00 +24°C° 0 mm 1 mps 753 mmHg 51%
    07:00 +26°C° 0 mm 1 mps 753 mmHg 46%
    08:00 +28°C° 0 mm 1 mps 753 mmHg 40%
    09:00 +30°C° 0 mm 1 mps 752 mmHg 35%
    10:00 +32°C° 0 mm 2 mps 752 mmHg 31%
    11:00 +34°C° 0 mm 2 mps 752 mmHg 28%
    12:00 +35°C° 0 mm 2 mps 751 mmHg 25%
    13:00 +36°C° 0 mm 2 mps 751 mmHg 24%
    14:00 +37°C° 0 mm 3 mps 751 mmHg 23%
    15:00 +37°C° 0 mm 3 mps 750 mmHg 22%
    16:00 +36°C° 0 mm 3 mps 750 mmHg 25%
    17:00 +34°C° 0 mm 3 mps 751 mmHg 27%
    18:00 +31°C° 0 mm 2 mps 751 mmHg 30%
    19:00 +30°C° 0 mm 3 mps 751 mmHg 33%
    20:00 +29°C° 0 mm 3 mps 751 mmHg 35%
    21:00 +28°C° 0 mm 3 mps 752 mmHg 37%
    22:00 +27°C° 0 mm 3 mps 752 mmHg 40%
    23:00 +26°C° 0 mm 3 mps 752 mmHg 42%

    Day after tomorrow, 22 September, Friday

    Time Temperature Precipitation Wind Pressure Humidity
    00:00 +26°C° 0 mm 2 mps 752 mmHg 44%
    01:00 +25°C° 0 mm 2 mps 752 mmHg 46%
    02:00 +24°C° 0 mm 1 mps 752 mmHg 47%
    03:00 +24°C° 0 mm 1 mps 752 mmHg 49%
    04:00 +24°C° 0 mm 1 mps 752 mmHg 49%
    05:00 +23°C° 0 mm 1 mps 752 mmHg 50%
    06:00 +23°C° 0 mm 1 mps 752 mmHg 51%
    07:00 +25°C° 0 mm 1 mps 752 mmHg 44%
    08:00 +28°C° 0 mm 1 mps 751 mmHg 37%
    09:00 +30°C° 0 mm 1 mps 751 mmHg 31%
    10:00 +31°C° 0 mm 2 mps 751 mmHg 28%
    11:00 +32°C° 0 mm 2 mps 750 mmHg 24%
    12:00 +35°C° 0 mm 3 mps 750 mmHg 21%
    13:00 +35°C° 0 mm 3 mps 749 mmHg 20%
    14:00 +36°C° 0 mm 3 mps 749 mmHg 20%
    15:00 +36°C° 0 mm 3 mps 749 mmHg 19%
    16:00 +35°C° 0 mm 3 mps 749 mmHg 22%
    17:00 +32°C° 0 mm 2 mps 749 mmHg 25%
    18:00 +30°C° 0 mm 2 mps 749 mmHg 28%
    19:00 +29°C° 0 mm 2 mps 750 mmHg 31%
    20:00 +28°C° 0 mm 2 mps 750 mmHg 33%
    21:00 +27°C° 0 mm 3 mps 751 mmHg 36%
    22:00 +26°C° 0.1 mm 2 mps 751 mmHg 39%
    23:00 +26°C° 0.1 mm 2 mps 751 mmHg 42%

    23 September, Saturday

    Time Temperature Precipitation Wind Pressure Humidity
    00:00 +25°C° 0.1 mm 1 mps 751 mmHg 45%
    01:00 +24°C° 0 mm 1 mps 751 mmHg 46%
    02:00 +24°C° 0 mm 1 mps 751 mmHg 48%
    03:00 +21°C° 0 mm 0 mps 751 mmHg 50%
    04:00 +23°C° 0 mm 1 mps 752 mmHg 49%
    05:00 +23°C° 0 mm 1 mps 752 mmHg 49%
    06:00 +23°C° 0 mm 1 mps 752 mmHg 48%
    07:00 +25°C° 0 mm 1 mps 752 mmHg 43%
    08:00 +27°C° 0 mm 1 mps 753 mmHg 38%
    09:00 +29°C° 0 mm 1 mps 753 mmHg 33%
    10:00 +31°C° 0 mm 2 mps 752 mmHg 30%
    11:00 +32°C° 0 mm 2 mps 752 mmHg 27%
    12:00 +34°C° 0 mm 3 mps 752 mmHg 24%
    13:00 +35°C° 0 mm 3 mps 752 mmHg 24%
    14:00 +35°C° 0 mm 4 mps 752 mmHg 23%
    15:00 +36°C° 0 mm 4 mps 751 mmHg 22%
    16:00 +34°C° 0 mm 3 mps 752 mmHg 25%
    17:00 +33°C° 0 mm 3 mps 752 mmHg 28%
    18:00 +30°C° 0 mm 2 mps 753 mmHg 31%
    19:00 +29°C° 0 mm 3 mps 753 mmHg 33%
    20:00 +28°C° 0 mm 3 mps 754 mmHg 34%
    21:00 +27°C° 0 mm 3 mps 754 mmHg 36%
    22:00 +26°C° 0 mm 3 mps 754 mmHg 39%
    23:00 +26°C° 0 mm 2 mps 755 mmHg 42%

    24 September, Sunday

    Time Temperature Precipitation Wind Pressure Humidity
    00:00 +25°C° 0 mm 1 mps 755 mmHg 44%
    01:00 +24°C° 0 mm 1 mps 755 mmHg 45%
    02:00 +24°C° 0 mm 1 mps 755 mmHg 45%
    03:00 +24°C° 0 mm 1 mps 755 mmHg 45%
    04:00 +23°C° 0 mm 1 mps 755 mmHg 44%
    05:00 +23°C° 0 mm 2 mps 755 mmHg 43%
    06:00 +23°C° 0 mm 2 mps 756 mmHg 42%
    07:00 +25°C° 0 mm 2 mps 756 mmHg 36%
    08:00 +27°C° 0 mm 2 mps 756 mmHg 30%
    09:00 +30°C° 0 mm 2 mps 756 mmHg 24%
    10:00 +31°C° 0 mm 2 mps 755 mmHg 21%
    11:00 +32°C° 0 mm 2 mps 755 mmHg 19%
    12:00 +34°C° 0 mm 3 mps 755 mmHg 17%
    13:00 +35°C° 0 mm 3 mps 755 mmHg 16%
    14:00 +35°C° 0 mm 4 mps 754 mmHg 15%
    15:00 +36°C° 0 mm 4 mps 754 mmHg 14%
    16:00 +34°C° 0 mm 4 mps 754 mmHg 17%
    17:00 +31°C° 0 mm 3 mps 755 mmHg 19%
    18:00 +30°C° 0 mm 3 mps 755 mmHg 22%
    19:00 +29°C° 0 mm 3 mps 756 mmHg 26%
    20:00 +28°C° 0 mm 3 mps 756 mmHg 31%
    21:00 +26°C° 0 mm 4 mps 757 mmHg 35%
    22:00 +26°C° 0 mm 3 mps 757 mmHg 37%
    23:00 +25°C° 0 mm 2 mps 757 mmHg 40%

    25 September, Monday

    Time Temperature Precipitation Wind Pressure Humidity
    00:00 +24°C° 0 mm 2 mps 757 mmHg 42%
    01:00 +24°C° 0 mm 2 mps 757 mmHg 42%
    02:00 +23°C° 0 mm 1 mps 757 mmHg 42%
    03:00 +23°C° 0 mm 1 mps 757 mmHg 42%
    04:00 +23°C° 0 mm 1 mps 757 mmHg 41%
    05:00 +22°C° 0 mm 1 mps 757 mmHg 40%
    06:00 +22°C° 0 mm 1 mps 758 mmHg 39%
    07:00 +24°C° 0 mm 2 mps 758 mmHg 37%
    08:00 +26°C° 0 mm 2 mps 758 mmHg 35%
    09:00 +28°C° 0 mm 3 mps 758 mmHg 33%
    10:00 +30°C° 0 mm 3 mps 758 mmHg 31%
    11:00 +32°C° 0 mm 4 mps 757 mmHg 30%
    12:00 +33°C° 0 mm 4 mps 757 mmHg 28%
    13:00 +33°C° 0 mm 4 mps 757 mmHg 28%
    14:00 +34°C° 0 mm 5 mps 756 mmHg 27%
    15:00 +34°C° 0 mm 5 mps 756 mmHg 26%
    16:00 +32°C° 0 mm 5 mps 757 mmHg 29%
    17:00 +30°C° 0 mm 5 mps 757 mmHg 32%
    18:00 +28°C° 0 mm 5 mps 757 mmHg 35%
    19:00 +27°C° 0 mm 4 mps 758 mmHg 39%
    20:00 +26°C° 0 mm 4 mps 758 mmHg 43%
    21:00 +23°C° 0 mm 4 mps 758 mmHg 47%
    22:00 +23°C° 0 mm 4 mps 758 mmHg 50%
    23:00 +22°C° 0 mm 3 mps 758 mmHg 53%
    Show more